TimePST,TemperatureF,Dew PointF,Humidity,Sea Level PressureIn,VisibilityMPH,Wind Direction,Wind SpeedMPH,Gust SpeedMPH,PrecipitationIn,Events,Conditions,WindDirDegrees,DateUTC
12:53 AM,36.0,27.0,70,29.98,10.0,WSW,6.9,-,N/A,,Overcast,240,2013-02-17 08:53:00
1:53 AM,35.1,27.0,72,29.99,10.0,WSW,6.9,-,N/A,,Overcast,240,2013-02-17 09:53:00
2:53 AM,35.1,27.0,72,30.00,10.0,Calm,Calm,-,N/A,,Overcast,0,2013-02-17 10:53:00
3:29 AM,35.6,26.6,70,29.99,2.5,WSW,6.9,-,N/A,Snow,Light Snow,250,2013-02-17 11:29:00
3:39 AM,33.8,28.4,81,29.98,1.8,WSW,3.5,-,0.00,Snow,Light Snow,240,2013-02-17 11:39:00
3:46 AM,33.8,28.4,81,29.98,3.0,Calm,Calm,-,0.00,Snow,Light Snow,0,2013-02-17 11:46:00
3:53 AM,34.0,28.9,82,30.02,3.0,Calm,Calm,-,0.00,Snow,Light Snow,0,2013-02-17 11:53:00
4:02 AM,33.8,28.4,81,29.98,2.0,Calm,Calm,-,0.00,Snow,Light Snow,0,2013-02-17 12:02:00
4:14 AM,33.8,28.4,81,29.97,8.0,WNW,3.5,-,0.00,Snow,Light Snow,300,2013-02-17 12:14:00
4:53 AM,34.0,28.9,82,30.02,10.0,Calm,Calm,-,0.00,,Mostly Cloudy,0,2013-02-17 12:53:00
5:53 AM,33.1,27.0,78,30.04,10.0,West,4.6,-,N/A,,Clear,260,2013-02-17 13:53:00
6:53 AM,32.0,25.0,75,30.05,10.0,West,4.6,-,N/A,,Clear,270,2013-02-17 14:53:00
7:53 AM,33.1,26.1,75,30.07,10.0,Calm,Calm,-,N/A,,Clear,0,2013-02-17 15:53:00
8:53 AM,35.1,26.1,70,30.07,10.0,WSW,6.9,-,N/A,,Clear,240,2013-02-17 16:53:00
9:53 AM,37.0,27.0,67,30.08,10.0,SSW,8.1,-,N/A,,Clear,200,2013-02-17 17:53:00
10:53 AM,41.0,28.9,62,30.08,10.0,SSW,8.1,-,N/A,,Clear,200,2013-02-17 18:53:00
11:53 AM,46.0,23.0,40,30.07,10.0,West,10.4,20.7,N/A,,Partly Cloudy,280,2013-02-17 19:53:00
12:53 PM,46.0,23.0,40,30.07,10.0,WSW,11.5,-,N/A,,Mostly Cloudy,250,2013-02-17 20:53:00
1:53 PM,45.0,24.1,44,30.06,10.0,WSW,12.7,20.7,N/A,,Mostly Cloudy,250,2013-02-17 21:53:00
2:53 PM,45.0,25.0,46,30.06,10.0,West,9.2,-,N/A,,Scattered Clouds,260,2013-02-17 22:53:00
3:53 PM,44.1,24.1,45,30.08,10.0,WSW,11.5,18.4,N/A,,Scattered Clouds,240,2013-02-17 23:53:00
4:53 PM,43.0,24.1,47,30.08,10.0,WSW,9.2,-,N/A,,Mostly Cloudy,250,2013-02-18 00:53:00
5:53 PM,41.0,24.1,51,30.09,10.0,West,5.8,-,N/A,,Mostly Cloudy,260,2013-02-18 01:53:00
6:53 PM,39.9,25.0,55,30.10,10.0,West,3.5,-,N/A,,Mostly Cloudy,260,2013-02-18 02:53:00
7:53 PM,37.9,24.1,57,30.11,10.0,WSW,3.5,-,N/A,,Overcast,250,2013-02-18 03:53:00
9:53 PM,39.0,24.1,55,30.13,10.0,WNW,3.5,-,N/A,,Overcast,300,2013-02-18 05:53:00
10:53 PM,37.0,24.1,59,30.13,10.0,Calm,Calm,-,N/A,,Overcast,0,2013-02-18 06:53:00
11:53 PM,34.0,25.0,70,30.12,10.0,NNE,3.5,-,N/A,,Mostly Cloudy,30,2013-02-18 07:53:00